[TLELIST] Archives

 

[list_settings.list_name] Current TLEs

July 19th 2012 PDT

HST 1 20580U 90037B 12200.40833987 .00002046 00000-0 13749-3 0 362 2 20580 028.4719 299.2153 0003410 034.1357 325.9826 15.02634001 19434 ISS (ZARYA) 1 25544U 98067A 12201.44560365 .00006048 00000-0 96933-4 0 9586 2 25544 051.6440 321.1423 0000631 255.5391 180.3007 15.54580896783039 CXO 1 25867U 99040B 12203.32586524 -.00000676 00000-0 00000+0 0 7664 2 25867 072.8259 002.1482 8741335 278.1814 000.5365 00.37798347 9288 ____________________________________________________________________ These 2-Line ...Continue Reading

[list_settings.list_name] Current TLEs

July 18th 2012 PDT

HST 1 20580U 90037B 12200.40833987 .00002046 00000-0 13749-3 0 362 2 20580 028.4719 299.2153 0003410 034.1357 325.9826 15.02634001 19434 ISS (ZARYA) 1 25544U 98067A 12200.48288568 .00056748 00000-0 84561-3 0 9520 2 25544 051.6413 325.9460 0001113 291.5043 152.9182 15.54539648782882 CXO 1 25867U 99040B 12198.03485107 -.00001055 +00000-0 +00000-0 0 00015 2 25867 072.7607 002.5933 8744086 278.1864 000.1484 00.37798216014795 ____________________________________________________________________ These 2-Line ...Continue Reading

[list_settings.list_name] Current TLEs

July 17th 2012 PDT

HST 1 20580U 90037B 12197.02094495 .00001323 00000-0 84513-4 0 352 2 20580 028.4708 321.3832 0003473 357.4779 002.5679 15.02620876 18923 ISS (ZARYA) 1 25544U 98067A 12199.11964120 .00014031 00000-0 20269-3 0 9436 2 25544 051.6397 332.7556 0007415 161.9335 201.8586 15.56213099782670 CXO 1 25867U 99040B 12198.03485107 -.00001055 +00000-0 +00000-0 0 00015 2 25867 072.7607 002.5933 8744086 278.1864 000.1484 00.37798216014795 ____________________________________________________________________ These 2-Line ...Continue Reading

[list_settings.list_name] Current TLEs

July 16th 2012 PDT

HST 1 20580U 90037B 12197.02094495 .00001323 00000-0 84513-4 0 352 2 20580 028.4708 321.3832 0003473 357.4779 002.5679 15.02620876 18923 ISS (ZARYA) 1 25544U 98067A 12198.43178449 .00013362 00000-0 19353-3 0 9372 2 25544 051.6394 336.1962 0007301 160.2147 307.4103 15.56190841782568 CXO 1 25867U 99040B 12200.68051976 -.00000826 00000-0 00000+0 0 7654 2 25867 072.7915 002.3502 8743528 278.1950 000.3542 00.37799542 9270 ____________________________________________________________________ These 2-Line ...Continue Reading

[list_settings.list_name] Current TLEs

July 15th 2012 PDT

HST 1 20580U 90037B 12197.02094495 .00001323 00000-0 84513-4 0 352 2 20580 028.4708 321.3832 0003473 357.4779 002.5679 15.02620876 18923 ISS (ZARYA) 1 25544U 98067A 12197.46304758 .00010756 00000-0 15737-3 0 9318 2 25544 051.6403 341.0384 0007297 156.1848 280.7361 15.56158862782418 CXO 1 25867U 99040B 12198.03614960 -.00001054 00000-0 00000+0 0 7640 2 25867 072.7609 002.5941 8744076 278.1867 000.3248 00.37798090 9264 ____________________________________________________________________ These 2-Line ...Continue Reading

[list_settings.list_name] Current TLEs

July 14th 2012 PDT

HST 1 20580U 90037B 12195.69255202 .00001721 00000-0 11374-3 0 343 2 20580 028.4711 330.0782 0003159 342.4825 017.5627 15.02619159 18724 ISS (ZARYA) 1 25544U 98067A 12196.43001006 .00011481 00000-0 16762-3 0 9241 2 25544 051.6412 346.2041 0007330 152.3904 253.4846 15.56138761782257 CXO 1 25867U 99040B 12198.03614960 -.00001054 00000-0 00000+0 0 7640 2 25867 072.7609 002.5941 8744076 278.1867 000.3248 00.37798090 9264 ____________________________________________________________________ These 2-Line ...Continue Reading

[list_settings.list_name] Current TLEs

July 13th 2012 PDT

HST 1 20580U 90037B 12194.69625687 .00001900 00000-0 12686-3 0 335 2 20580 028.4712 336.5983 0003171 331.9121 028.1348 15.02616703 18578 ISS (ZARYA) 1 25544U 98067A 12195.40123884 .00012458 00000-0 18140-3 0 9175 2 25544 051.6412 351.3466 0007515 148.9048 249.9232 15.56118276782090 CXO 1 25867U 99040B 12195.39009843 -.00001236 00000-0 00000+0 0 7635 2 25867 072.7457 002.7740 8744120 278.2046 000.0513 00.37799582 9252 ____________________________________________________________________ These 2-Line ...Continue Reading

[list_settings.list_name] Current TLEs

July 12th 2012 PDT

HST 1 20580U 90037B 12193.03576048 .00001824 00000-0 12133-3 0 329 2 20580 028.4712 347.4631 0003127 316.5196 043.5274 15.02610750 18329 ISS (ZARYA) 1 25544U 98067A 12194.49526340 .00011066 00000-0 15504-3 0 9116 2 25544 051.6391 355.8783 0007328 147.7077 212.4890 15.56091600186104 CXO 1 25867U 99040B 12195.39158858 -.00001236 00000-0 00000+0 0 7625 2 25867 072.7460 002.7760 8744105 278.2054 000.2560 00.37798586 9257 ____________________________________________________________________ These 2-Line ...Continue Reading

[list_settings.list_name] Current TLEs

July 11th 2012 PDT

HST 1 20580U 90037B 12193.03576048 .00001824 00000-0 12133-3 0 329 2 20580 028.4712 347.4631 0003127 316.5196 043.5274 15.02610750 18329 ISS (ZARYA) 1 25544U 98067A 12193.41876316 .00011438 00000-0 16747-3 0 9043 2 25544 051.6415 001.2576 0007564 141.2454 304.5036 15.56063790781782 CXO 1 25867U 99040B 12195.39158858 -.00001236 00000-0 00000+0 0 7625 2 25867 072.7460 002.7760 8744105 278.2054 000.2560 00.37798586 9257 ____________________________________________________________________ These 2-Line ...Continue Reading

[list_settings.list_name] Current TLEs

July 10th 2012 PDT

HST 1 20580U 90037B 12190.17968982 .00001568 00000-0 10252-3 0 317 2 20580 028.4715 006.1595 0003028 282.9635 077.0692 15.02601390 17891 ISS (ZARYA) 1 25544U 98067A 12192.38953920 .00010036 00000-0 14798-3 0 8984 2 25544 051.6414 006.4031 0007836 138.6587 297.7535 15.56033094781627 CXO 1 25867U 99040B 12192.74680283 -.00001282 00000-0 00000+0 0 7613 2 25867 072.7311 002.9353 8746685 278.2290 000.1785 00.37802090 9242 ____________________________________________________________________ These 2-Line ...Continue Reading
  • This mailing list is a public mailing list - anyone may join or leave, at any time.
  • This mailing list is announce-only.

International Space Station (ISS) / Hubble Space Telescope (HST) / Chandra X-Ray Observatory Orbital Data via EMAIL

Privacy Policy:

Private list